Location: Unspecified
(0.0000°N, 0.0000°E)
Time: 23:10:55
(UTC+00:00)

STARS - Visible Passes

Search period start: 16 January 2018 00:00
Search period end: 26 January 2018 00:00
Orbit: 625 x 641 km, 98.3° (Epoch: 15 January)

Date Brightness Start Highest point End Pass type
(mag) Time Alt. Az. Time Alt. Az. Time Alt. Az.
16 Jan ? 05:00:15 10° SE 05:03:30 21° ENE 05:06:44 10° NNE visible
16 Jan ? 18:48:30 10° NW 18:50:07 12° WNW 18:51:43 10° W visible
17 Jan ? 05:20:42 10° SSE 05:24:47 40° ENE 05:28:51 10° N visible
18 Jan ? 05:41:42 10° SSE 05:46:05 84° ENE 05:50:24 10° N visible
20 Jan ? 04:50:16 10° ESE 04:52:35 14° ENE 04:54:52 10° NE visible
20 Jan ? 18:36:17 10° NW 18:39:11 17° WNW 18:42:07 10° WSW visible
21 Jan ? 05:10:08 10° SE 05:13:51 28° ENE 05:17:33 10° NNE visible
22 Jan ? 05:30:52 10° SSE 05:35:09 56° ENE 05:39:23 10° N visible
25 Jan ? 04:59:50 10° ESE 05:02:55 19° ENE 05:06:00 10° NNE visible
25 Jan ? 18:47:34 10° NW 18:49:33 13° WNW 18:51:32 10° WSW visible
